User: anonymous   Login
Location: Iesi
(43.5167°N, 13.2333°E)
Time: 04:25:47
(UTC+00:00)
Language:

Cosmos 2208 Rocket - Orbit

View from above orbital plane
View from above orbital plane
View from above satellite
View from above satellite

Ground track
Ground track

The orbit data is extracted from the following two-line orbital elements,

1 22081U 92053B   20304.51667933  .00000088  00000-0  41106-4 0  9993
2 22081  74.0451 347.4815 0035803  13.1126 347.0947 14.33490613475274
Epoch (UTC): 30 October 2020 12:24:01
Eccentricity: 0.0035803
inclination: 74.0451°
perigee height: 754 km
apogee height: 806 km
right ascension of ascending node: 347.4815°
argument of perigee: 13.1126°
revolutions per day: 14.33490613
mean anomaly at epoch: 347.0947°
orbit number at epoch: 47527

The dashed part of the orbit path shows where the satellite is in the earth's shadow,  

DLR